�N����,����,�~����,�C��,���x,�C��,����,���ϕ���,�ő�u�ԕ���,�ő厞����,���˗�,�I�_���x,�n�����x,�ő啗���N��,DTYPE
"18/03/23","00:10",0.0,5.5,87.6,1005.5,297.8,2.7,5.4,318.2,0.00,3.6,9.1,"00:03:24",1
"18/03/23","00:20",0.0,5.5,87.6,1005.5,304.5,3.6,6.0,338.6,0.00,3.6,9.1,"00:18:32",1
"18/03/23","00:30",0.0,5.5,87.7,1005.7,298.7,3.2,5.2,304.8,0.00,3.7,9.0,"00:26:00",1
"18/03/23","00:40",0.0,5.6,86.8,1006.0,310.5,3.1,5.4,329.4,0.00,3.6,9.0,"00:32:50",1
"18/03/23","00:50",0.0,5.6,86.4,1006.0,294.8,2.5,4.0,304.0,0.00,3.6,9.1,"00:44:22",1
"18/03/23","01:00",0.0,5.8,84.5,1006.4,294.3,2.7,4.1,305.5,0.00,3.4,8.8,"00:51:22",1
"18/03/23","01:10",0.0,6.0,82.9,1006.2,289.3,2.8,4.4,301.0,0.00,3.4,9.0,"01:07:38",1
"18/03/23","01:20",0.0,6.0,82.4,1006.7,292.2,2.7,4.7,314.6,0.00,3.3,8.8,"01:12:40",1
"18/03/23","01:30",0.0,6.0,81.8,1006.7,295.1,2.8,4.9,328.8,0.00,3.2,9.0,"01:21:04",1
"18/03/23","01:40",0.0,5.9,81.8,1006.7,284.1,3.0,4.7,295.9,0.00,3.1,8.7,"01:34:20",1
"18/03/23","01:50",0.0,5.9,81.8,1006.9,291.2,2.8,4.4,307.9,0.00,3.1,8.9,"01:42:48",1
"18/03/23","02:00",0.0,5.9,81.3,1006.7,296.3,3.2,4.9,309.1,0.00,3.0,8.9,"01:59:06",1
"18/03/23","02:10",0.0,5.9,80.5,1006.9,284.1,2.7,5.0,302.2,0.00,2.8,8.7,"02:04:08",1
"18/03/23","02:20",0.0,5.8,79.2,1006.7,284.8,3.0,8.9,316.1,0.00,2.5,8.6,"02:13:12",1
"18/03/23","02:30",0.0,5.7,78.6,1007.1,281.1,2.6,5.6,254.5,0.00,2.3,8.8,"02:29:52",1
"18/03/23","02:40",0.0,5.6,77.5,1007.1,285.2,2.3,3.7,286.2,0.00,2.0,8.5,"02:30:16",1
"18/03/23","02:50",0.0,5.6,78.0,1007.4,309.7,2.8,5.8,332.0,0.00,2.1,8.7,"02:47:28",1
"18/03/23","03:00",0.0,5.5,78.3,1007.1,297.5,2.6,4.0,281.5,0.00,2.1,8.5,"02:57:16",1
"18/03/23","03:10",0.0,5.3,77.8,1007.4,299.2,2.5,3.7,324.7,0.00,1.8,8.5,"03:01:30",1
"18/03/23","03:20",0.0,5.2,78.4,1007.6,288.2,2.3,4.8,320.5,0.00,1.8,8.5,"03:18:48",1
"18/03/23","03:30",0.0,5.1,78.7,1007.4,308.3,2.5,4.8,315.3,0.00,1.8,8.5,"03:26:32",1
"18/03/23","03:40",0.0,4.9,78.8,1007.4,288.9,2.3,3.4,253.2,0.00,1.6,8.4,"03:33:52",1
"18/03/23","03:50",0.0,4.6,80.0,1007.1,312.2,2.0,4.1,327.4,0.00,1.5,8.4,"03:40:32",1
"18/03/23","04:00",0.0,4.4,81.5,1007.1,295.2,2.0,4.0,326.4,0.00,1.6,8.4,"03:56:56",1
"18/03/23","04:10",0.0,4.3,81.0,1007.4,324.0,2.0,2.8,339.1,0.00,1.4,8.2,"04:02:48",1
"18/03/23","04:20",0.0,4.0,83.7,1006.9,322.1,2.3,6.4,323.4,0.00,1.5,8.4,"04:17:36",1
"18/03/23","04:30",0.0,3.7,83.0,1007.4,318.5,1.7,2.9,324.7,0.00,1.1,8.2,"04:21:52",1
"18/03/23","04:40",0.0,3.4,85.9,1007.1,319.7,1.3,2.5,329.9,0.00,1.3,7.8,"04:35:06",1
"18/03/23","04:50",0.0,2.9,87.1,1007.6,312.7,1.2,2.4,332.2,0.00,1.0,8.2,"04:41:52",1
"18/03/23","05:00",0.0,2.6,88.8,1007.6,323.8,0.8,1.6,331.7,0.00,1.0,8.1,"04:52:56",1
"18/03/23","05:10",0.0,2.5,90.1,1007.4,300.8,1.0,3.1,321.9,0.00,1.1,8.0,"05:00:48",1
"18/03/23","05:20",0.0,2.4,90.9,1007.6,306.1,1.3,2.8,325.1,0.00,1.1,7.9,"05:10:32",1
"18/03/23","05:30",0.0,2.2,92.0,1007.4,291.4,1.8,2.9,308.1,0.00,1.1,8.0,"05:28:00",1
"18/03/23","05:40",0.0,1.9,92.1,1007.6,287.8,1.6,2.7,327.1,0.00,0.8,7.8,"05:31:28",1
"18/03/23","05:50",0.0,1.5,92.7,1007.6,301.6,2.0,3.2,324.7,0.00,0.5,7.7,"05:42:00",1
"18/03/23","06:00",0.0,1.4,93.7,1007.6,305.0,2.0,3.6,336.7,0.00,0.5,7.8,"05:55:52",1
"18/03/23","06:10",0.0,1.6,94.6,1007.6,296.2,1.5,3.1,344.7,0.00,0.9,7.6,"06:05:44",1
"18/03/23","06:20",0.0,1.5,95.0,1008.1,278.2,1.1,2.5,313.6,0.00,0.8,7.7,"06:18:16",1
"18/03/23","06:30",0.0,1.6,95.3,1008.1,260.6,1.2,2.2,308.3,0.00,1.0,7.4,"06:20:24",1
"18/03/23","06:40",0.0,1.7,95.6,1008.3,303.3,2.2,4.3,321.5,0.00,1.1,7.7,"06:33:44",1
"18/03/23","06:50",0.0,1.8,96.0,1008.3,287.3,1.5,2.5,307.3,0.00,1.3,7.7,"06:43:12",1
"18/03/23","07:00",0.0,2.6,95.7,1008.8,306.5,1.5,2.8,318.9,0.01,2.0,7.5,"06:55:28",1
"18/03/23","07:10",0.0,3.2,95.0,1009.0,286.1,1.1,2.2,320.4,0.02,2.5,7.5,"07:00:16",1
"18/03/23","07:20",0.0,4.4,93.1,1009.5,280.6,0.7,1.6,317.2,0.03,3.4,7.6,"07:10:24",1
"18/03/23","07:30",0.0,4.6,88.9,1009.5,273.8,0.6,1.3,298.4,0.05,3.0,7.5,"07:22:16",1
"18/03/23","07:40",0.0,5.5,85.1,1009.7,270.8,0.6,1.7,303.5,0.08,3.2,7.7,"07:31:52",1
"18/03/23","07:50",0.0,6.1,82.1,1009.7,146.4,0.3,1.0,127.8,0.11,3.3,7.7,"07:41:20",1
"18/03/23","08:00",0.0,6.8,79.3,1010.4,177.3,0.5,1.0,221.9,0.13,3.5,7.8,"07:59:52",1
"18/03/23","08:10",0.0,7.1,74.5,1011.4,205.2,0.6,1.4,161.4,0.16,2.9,7.6,"08:01:04",1
"18/03/23","08:20",0.0,7.5,70.3,1011.6,315.7,1.3,2.5,328.0,0.19,2.5,8.0,"08:10:48",1
"18/03/23","08:30",0.0,7.9,70.7,1011.9,238.9,0.6,1.7,38.8,0.20,3.0,8.0,"08:28:48",1
"18/03/23","08:40",0.0,7.5,68.6,1011.9,117.0,1.2,2.8,107.4,0.19,2.1,8.3,"08:38:56",1
"18/03/23","08:50",0.0,8.4,66.1,1012.1,304.3,1.2,3.3,338.8,0.26,2.5,8.3,"08:49:44",1
"18/03/23","09:00",0.0,8.8,63.8,1012.1,346.4,2.0,5.1,335.4,0.34,2.4,8.3,"08:59:20",1
"18/03/23","09:10",0.0,8.9,62.8,1012.3,349.2,3.1,6.7,351.0,0.38,2.2,8.3,"09:04:16",1
"18/03/23","09:20",0.0,9.2,61.0,1012.1,349.0,2.6,4.8,344.4,0.40,2.1,8.7,"09:12:56",1
"18/03/23","09:30",0.0,9.6,61.1,1012.1,314.2,2.3,4.9,320.9,0.40,2.5,8.9,"09:24:48",1
"18/03/23","09:40",0.0,10.5,60.9,1011.9,316.5,1.3,3.6,329.4,0.46,3.3,9.1,"09:37:44",1
"18/03/23","09:50",0.0,9.7,61.8,1012.1,275.0,1.3,2.9,96.7,0.38,2.8,9.4,"09:40:16",1
"18/03/23","10:00",0.0,9.2,62.1,1012.1,265.2,1.8,3.6,248.0,0.20,2.4,9.5,"09:58:40",1
"18/03/23","10:10",0.0,9.6,61.2,1011.6,306.3,2.5,4.1,326.0,0.21,2.5,9.5,"10:04:24",1
"18/03/23","10:20",0.0,10.5,58.3,1011.6,334.5,1.7,3.7,323.5,0.46,2.7,9.7,"10:18:16",1
"18/03/23","10:30",0.0,10.4,61.3,1011.6,286.9,2.2,4.3,303.4,0.43,3.3,9.9,"10:21:04",1
"18/03/23","10:40",0.0,10.6,59.0,1011.6,297.3,2.2,5.0,341.5,0.31,3.0,10.0,"10:30:08",1
"18/03/23","10:50",0.0,10.9,57.5,1011.6,276.6,2.0,3.6,309.3,0.48,2.9,10.4,"10:46:16",1
"18/03/23","11:00",0.0,10.2,58.7,1011.9,265.3,2.3,5.0,318.2,0.27,2.5,10.2,"10:53:12",1
"18/03/23","11:10",0.0,10.6,58.0,1011.9,274.7,2.5,5.5,219.7,0.41,2.7,10.5,"11:09:36",1
"18/03/23","11:20",0.0,11.1,59.3,1011.4,267.3,2.5,4.4,316.6,0.44,3.5,10.6,"11:13:36",1
"18/03/23","11:30",0.0,11.1,58.6,1011.2,248.1,2.7,4.9,229.9,0.41,3.3,10.8,"11:26:40",1
"18/03/23","11:40",0.2,11.5,59.3,1011.4,238.7,2.3,4.4,243.0,0.44,3.9,11.0,"11:30:16",1
"18/03/23","11:50",0.0,12.3,53.5,1011.4,276.5,2.6,5.2,339.4,0.53,3.2,11.0,"11:42:56",1
"18/03/23","12:00",0.0,12.5,54.5,1011.4,262.6,2.5,5.0,241.2,0.67,3.6,11.2,"11:57:52",1
"18/03/23","12:10",0.0,12.8,52.7,1011.2,263.8,2.5,4.4,239.1,0.50,3.4,11.5,"12:03:52",1
"18/03/23","12:20",0.0,13.2,56.4,1010.9,276.0,2.0,3.7,340.4,0.59,4.8,11.7,"12:11:36",1
"18/03/23","12:30",0.0,13.2,48.4,1011.2,315.2,3.2,6.6,341.6,0.53,2.6,11.9,"12:25:44",1
"18/03/23","12:40",0.0,12.8,46.0,1010.9,346.0,2.3,5.4,339.4,0.58,1.5,12.2,"12:37:44",1
"18/03/23","12:50",0.0,12.5,48.5,1010.4,3.5,1.6,4.1,331.3,0.52,2.0,12.3,"12:42:00",1
"18/03/23","13:00",0.0,13.8,46.8,1010.7,294.4,2.0,4.8,307.3,0.57,2.7,12.6,"12:52:32",1
"18/03/23","13:10",0.0,13.8,49.0,1010.4,288.3,2.0,4.3,343.7,0.49,3.3,12.7,"13:05:36",1
"18/03/23","13:20",0.0,13.5,44.3,1010.7,339.5,3.1,5.1,330.5,0.51,1.6,12.8,"13:12:00",1
"18/03/23","13:30",0.0,13.4,46.0,1010.7,338.3,2.6,5.6,337.6,0.47,2.1,13.0,"13:22:16",1
"18/03/23","13:40",0.0,13.3,44.9,1010.4,348.7,2.6,5.7,337.1,0.50,1.6,13.0,"13:37:28",1
"18/03/23","13:50",0.0,13.8,47.0,1010.2,331.7,2.3,5.5,332.3,0.51,2.7,13.3,"13:44:56",1
"18/03/23","14:00",0.0,13.9,46.9,1010.0,288.6,2.8,5.2,303.6,0.52,2.8,13.4,"13:59:36",1
"18/03/23","14:10",0.0,14.5,46.2,1010.2,332.4,3.2,7.0,345.5,0.50,3.1,13.4,"14:06:40",1
"18/03/23","14:20",0.0,13.5,47.7,1010.2,302.9,1.7,3.4,325.3,0.42,2.7,13.6,"14:12:00",1
"18/03/23","14:30",0.0,14.0,44.8,1010.0,307.8,2.5,5.9,326.0,0.41,2.2,13.5,"14:29:36",1
"18/03/23","14:40",0.0,14.0,44.1,1010.0,326.3,2.5,7.3,339.5,0.40,2.0,13.7,"14:33:20",1
"18/03/23","14:50",0.0,14.5,42.6,1010.2,322.4,2.1,4.9,320.8,0.34,2.0,13.7,"14:49:52",1
"18/03/23","15:00",0.0,14.3,43.6,1010.0,339.2,3.2,7.0,341.4,0.40,2.1,13.8,"14:51:04",1
"18/03/23","15:10",0.0,13.6,41.7,1010.2,331.8,3.7,5.9,329.2,0.35,0.9,13.7,"15:08:00",1
"18/03/23","15:20",0.0,14.1,41.4,1010.2,320.5,2.6,5.2,334.3,0.36,1.2,13.7,"15:14:16",1
"18/03/23","15:30",0.0,14.1,41.3,1010.2,337.0,2.5,4.4,329.3,0.35,1.2,13.8,"15:29:12",1
"18/03/23","15:40",0.0,14.0,41.5,1010.0,319.1,3.0,6.6,338.0,0.32,1.2,13.7,"15:36:08",1
"18/03/23","15:50",0.0,14.1,47.5,1010.0,332.1,2.3,5.9,342.8,0.29,3.2,13.6,"15:41:28",1
"18/03/23","16:00",0.0,14.3,44.8,1010.0,342.9,2.8,5.5,328.9,0.26,2.5,13.7,"15:55:12",1
"18/03/23","16:10",0.0,14.0,45.4,1010.7,335.3,2.8,5.7,329.3,0.23,2.4,13.7,"16:00:40",1
"18/03/23","16:20",0.0,13.5,45.2,1010.2,347.2,2.7,5.9,340.8,0.20,1.9,13.6,"16:11:28",1
"18/03/23","16:30",0.0,13.3,47.3,1010.7,352.3,2.5,5.2,339.9,0.17,2.4,13.4,"16:25:20",1
"18/03/23","16:40",0.0,13.0,47.4,1010.7,349.9,3.1,5.5,335.7,0.15,2.1,13.4,"16:37:36",1
"18/03/23","16:50",0.0,13.0,50.0,1010.7,342.9,3.0,4.9,338.2,0.12,2.9,13.4,"16:48:00",1
"18/03/23","17:00",0.0,12.5,50.4,1010.9,335.9,2.7,6.7,352.6,0.10,2.5,13.3,"16:59:20",1
"18/03/23","17:10",0.0,11.9,52.5,1011.6,345.3,3.7,6.5,342.2,0.07,2.5,13.1,"17:01:36",1
"18/03/23","17:20",0.0,11.5,53.6,1011.4,342.5,3.4,6.4,331.3,0.05,2.5,13.0,"17:18:48",1
"18/03/23","17:30",0.0,11.2,54.5,1011.4,353.1,3.0,4.8,22.8,0.03,2.4,12.8,"17:23:44",1
"18/03/23","17:40",0.0,10.9,56.3,1011.4,341.8,3.1,6.2,337.4,0.02,2.6,12.5,"17:32:24",1
"18/03/23","17:50",0.0,10.5,57.2,1012.1,343.6,3.1,6.0,337.6,0.01,2.4,12.5,"17:44:12",1
"18/03/23","18:00",0.0,10.0,59.0,1012.1,339.3,2.7,5.4,348.5,0.00,2.4,12.2,"17:50:54",1
"18/03/23","18:10",0.0,9.7,60.4,1012.1,343.9,2.6,5.7,6.1,0.00,2.5,12.2,"18:07:54",1
"18/03/23","18:20",0.0,9.2,62.2,1012.3,337.4,2.5,4.8,344.6,0.00,2.4,12.1,"18:12:32",1
"18/03/23","18:30",0.0,8.7,64.5,1012.3,336.2,1.7,2.5,327.5,0.00,2.4,11.9,"18:21:36",1
"18/03/23","18:40",0.0,8.1,67.5,1012.6,333.2,2.0,3.2,332.7,0.00,2.5,11.8,"18:35:20",1
"18/03/23","18:50",0.0,7.6,69.9,1012.6,326.3,2.0,3.9,317.8,0.00,2.5,11.8,"18:48:56",1
"18/03/23","19:00",0.0,7.2,72.2,1012.8,322.1,2.3,3.1,331.8,0.00,2.6,11.5,"18:57:44",1
"18/03/23","19:10",0.0,7.0,73.5,1013.0,321.6,2.5,3.9,323.3,0.00,2.6,11.4,"19:06:08",1
"18/03/23","19:20",0.0,6.9,74.1,1013.0,324.8,2.5,3.4,341.8,0.00,2.7,11.2,"19:13:12",1
"18/03/23","19:30",0.0,6.8,74.3,1012.6,328.2,2.5,4.3,344.5,0.00,2.6,11.2,"19:28:24",1
"18/03/23","19:40",0.0,6.9,71.9,1013.0,337.9,2.3,3.5,321.6,0.00,2.2,11.2,"19:37:12",1
"18/03/23","19:50",0.0,6.7,72.2,1013.3,332.8,2.3,3.4,325.9,0.00,2.1,11.0,"19:42:24",1
"18/03/23","20:00",0.0,6.6,72.1,1013.0,334.7,2.1,3.4,320.7,0.00,2.0,10.9,"19:53:04",1
"18/03/23","20:10",0.0,6.5,71.1,1013.8,322.3,2.1,3.7,331.4,0.00,1.7,10.7,"20:04:24",1
"18/03/23","20:20",0.0,6.0,72.6,1013.5,303.0,1.8,3.1,332.5,0.00,1.5,10.7,"20:17:20",1
"18/03/23","20:30",0.0,5.8,73.5,1013.8,315.9,2.0,3.4,303.0,0.00,1.5,10.5,"20:26:16",1
"18/03/23","20:40",0.0,5.8,74.1,1013.8,296.4,2.1,2.7,306.8,0.00,1.6,10.5,"20:38:08",1
"18/03/23","20:50",0.0,5.5,75.6,1013.8,288.0,1.8,2.2,317.1,0.00,1.6,10.3,"20:40:08",1
"18/03/23","21:00",0.0,5.1,77.2,1013.8,293.1,1.8,2.5,270.7,0.00,1.5,10.2,"20:52:14",1
"18/03/23","21:10",0.0,4.8,78.6,1013.5,284.3,1.1,1.8,309.3,0.00,1.4,10.0,"21:08:38",1
"18/03/23","21:20",0.0,4.3,80.0,1013.3,291.5,1.5,2.0,311.5,0.00,1.2,9.8,"21:18:36",1
"18/03/23","21:30",0.0,4.2,83.3,1013.5,323.5,1.7,2.6,307.7,0.00,1.7,9.9,"21:29:16",1
"18/03/23","21:40",0.0,3.9,83.2,1013.5,309.4,1.7,2.6,307.7,0.00,1.4,9.9,"21:30:56",1
"18/03/23","21:50",0.0,3.5,85.8,1013.3,294.1,1.7,2.6,309.4,0.00,1.4,9.7,"21:42:18",1
"18/03/23","22:00",0.0,3.4,86.8,1013.8,307.8,2.1,2.8,325.7,0.00,1.5,9.6,"21:51:52",1
"18/03/23","22:10",0.0,3.3,87.5,1013.5,315.4,2.1,3.2,346.3,0.00,1.5,9.6,"22:03:28",1
"18/03/23","22:20",0.0,3.1,88.4,1013.3,306.0,2.0,3.5,319.0,0.00,1.4,9.4,"22:15:28",1
"18/03/23","22:30",0.0,3.0,89.1,1013.5,312.3,2.0,2.9,322.4,0.00,1.4,9.3,"22:26:00",1
"18/03/23","22:40",0.0,2.9,89.7,1013.5,297.2,2.2,3.3,322.9,0.00,1.4,9.3,"22:30:40",1
"18/03/23","22:50",0.0,2.8,89.9,1013.8,290.8,2.0,2.6,315.0,0.00,1.3,9.1,"22:41:28",1
"18/03/23","23:00",0.0,2.8,90.1,1013.5,313.1,2.0,2.9,314.9,0.00,1.4,9.1,"22:53:12",1
"18/03/23","23:10",0.0,2.6,90.5,1013.8,279.6,1.7,2.7,321.5,0.00,1.2,8.9,"23:00:48",1
"18/03/23","23:20",0.0,2.4,90.8,1013.8,281.8,2.1,3.1,296.0,0.00,1.1,9.0,"23:13:52",1
"18/03/23","23:30",0.0,2.3,91.5,1013.8,284.5,1.8,2.2,271.8,0.00,1.1,8.8,"23:22:24",1
"18/03/23","23:40",0.0,2.1,91.4,1013.3,284.5,1.7,2.4,314.2,0.00,0.9,8.7,"23:39:20",1
"18/03/23","23:50",0.0,1.9,92.1,1013.5,290.1,1.6,2.0,297.3,0.00,0.8,8.7,"23:40:16",1
"18/03/23","24:00",0.0,1.9,92.6,1013.5,295.3,1.8,2.5,312.5,0.00,0.9,8.6,"23:52:32",1
